Date String (YYYY-MM-DD hh:mm:ss) UTC,Instrument flags,Ambient pressure (hPa),Sample flow (lpm),Bypass flow (lpm),Sample temperature (°C),Ambient temperature (°C),ASC tube jacket temperature (°C),LED temperature (°C),Box temperature (°C),Sample RH (%),Span deviation,Mass concentration (μg/m³),Mass concentration (μg/m³),Mass concentration (μg/m³)
DateTimeUTC,F1_M11,P_M11,Q1_M11,Q2_M11,T1_M11,T2_M11,T3_M11,T4_M11,T5_M11,U1_M11,ZSPAN_M11,X0_M11,X2_M11,X1_M11
2023-05-04 10:00:00,,0824.9,4.99,0.00,28.9,27.2,00.0,37.4,30.4,12.1,0000.0,0013.76,0004.76,0003.25
2023-05-04 10:01:00,,0824.9,4.99,0.00,28.9,27.2,00.0,37.4,30.4,12.1,0000.0,0013.53,0004.74,0003.23
2023-05-04 10:02:00,,0825.0,5.00,0.00,28.9,27.1,00.0,37.4,30.3,12.1,0000.0,0013.03,0004.74,0003.23
2023-05-04 10:03:00,,0824.9,5.00,0.00,28.8,27.1,00.0,37.4,30.3,12.2,0000.0,0012.64,0004.76,0003.23
2023-05-04 10:04:00,,0824.9,5.00,0.00,28.8,27.1,00.0,37.4,30.4,12.2,0000.0,0012.45,0004.77,0003.23
2023-05-04 10:05:00,,0824.9,5.00,0.00,28.8,27.1,00.0,37.3,30.4,12.2,0000.0,0012.37,0004.80,0003.23
2023-05-04 10:06:00,,0824.9,5.00,0.00,28.8,27.1,00.0,37.3,30.4,12.2,0000.0,0011.23,0004.73,0003.23
2023-05-04 10:07:00,,0824.9,4.98,0.00,28.8,27.1,00.0,37.3,30.4,12.3,0000.0,0010.79,0004.69,0003.24
2023-05-04 10:08:00,,0824.8,5.00,0.00,28.8,27.1,00.0,37.3,30.3,12.3,0000.0,0010.78,0004.75,0003.24
2023-05-04 10:09:00,,0824.8,5.00,0.00,28.8,27.1,00.0,37.3,30.3,12.3,0000.0,0011.25,0004.73,0003.24
2023-05-04 10:10:00,,0824.9,5.00,0.00,28.8,27.1,00.0,37.3,30.3,12.3,0000.0,0011.98,0004.78,0003.25
2023-05-04 10:11:00,,0824.9,5.01,0.00,28.8,27.1,00.0,37.3,30.4,12.3,0000.0,0012.05,0004.79,0003.26
2023-05-04 10:12:00,,0824.9,5.00,0.00,28.8,27.1,00.0,37.3,30.4,12.2,0000.0,0012.80,0004.82,0003.28
2023-05-04 10:13:00,,0824.9,5.01,0.00,28.8,27.1,00.0,37.3,30.4,12.2,0000.0,0014.50,0004.82,0003.28
2023-05-04 10:14:00,,0824.9,5.00,0.00,28.8,27.1,00.0,37.3,30.4,12.2,0000.0,0015.04,0004.78,0003.27
2023-05-04 10:15:00,,0824.9,5.01,0.00,28.8,27.2,00.0,37.3,30.4,12.2,0000.0,0015.69,0004.84,0003.28
2023-05-04 10:16:00,,0824.9,5.01,0.00,28.8,27.2,00.0,37.3,30.4,12.1,0000.0,0015.91,0004.82,0003.28
2023-05-04 10:17:00,,0824.9,4.99,0.00,28.8,27.2,00.0,37.3,30.4,12.1,0000.0,0016.74,0004.82,0003.28
2023-05-04 10:18:00,,0824.9,5.00,0.00,28.8,27.2,00.0,37.2,30.4,12.1,0000.0,0017.17,0004.79,0003.27
2023-05-04 10:19:00,,0824.9,5.00,0.00,28.8,27.2,00.0,37.2,30.4,12.1,0000.0,0017.65,0004.74,0003.26
2023-05-04 10:20:00,,0824.8,5.00,0.00,28.8,27.2,00.0,37.2,30.4,12.1,0000.0,0017.21,0004.71,0003.25
2023-05-04 10:21:00,,0824.7,4.99,0.00,28.8,27.2,00.0,37.2,30.3,12.1,0000.0,0016.61,0004.67,0003.24
2023-05-04 10:22:00,,0824.7,4.99,0.00,28.8,27.2,00.0,37.2,30.3,12.1,0000.0,0016.42,0004.67,0003.23
2023-05-04 10:23:00,,0824.7,5.00,0.00,28.8,27.1,00.0,37.2,30.3,12.2,0000.0,0015.67,0004.66,0003.22
2023-05-04 10:24:00,,0824.7,5.01,0.00,28.8,27.1,00.0,37.2,30.3,12.2,0000.0,0014.01,0004.67,0003.22
2023-05-04 10:25:00,,0824.7,5.00,0.00,28.8,27.1,00.0,37.2,30.3,12.3,0000.0,0013.21,0004.71,0003.23
2023-05-04 10:26:00,,0824.7,5.00,0.00,28.7,27.1,00.0,37.2,30.3,12.3,0000.0,0012.73,0004.65,0003.22
2023-05-04 10:27:00,,0824.7,4.99,0.00,28.7,27.1,00.0,37.2,30.3,12.3,0000.0,0012.63,0004.65,0003.23
2023-05-04 10:28:00,,0824.8,4.99,0.00,28.7,27.1,00.0,37.2,30.2,12.3,0000.0,0012.41,0004.71,0003.23
2023-05-04 10:29:00,,0824.8,5.00,0.00,28.7,27.1,00.0,37.2,30.2,12.3,0000.0,0012.05,0004.75,0003.24
2023-05-04 10:30:00,,0824.9,5.01,0.00,28.7,27.1,00.0,37.2,30.2,12.2,0000.0,0011.41,0004.75,0003.24
2023-05-04 10:31:00,,0824.9,5.00,0.00,28.7,27.0,00.0,37.2,30.3,12.2,0000.0,0011.40,0004.78,0003.26
2023-05-04 10:32:00,,0824.9,5.00,0.00,28.7,27.0,00.0,37.2,30.3,12.2,0000.0,0011.26,0004.80,0003.26
2023-05-04 10:33:00,,0824.9,5.01,0.00,28.7,27.1,00.0,37.2,30.3,12.2,0000.0,0011.49,0004.79,0003.26
2023-05-04 10:34:00,,0824.9,5.00,0.00,28.7,27.1,00.0,37.1,30.3,12.1,0000.0,0011.95,0004.77,0003.26
2023-05-04 10:35:00,,0824.9,5.00,0.00,28.7,27.1,00.0,37.1,30.3,12.1,0000.0,0011.85,0004.74,0003.25
2023-05-04 10:36:00,,0824.9,4.99,0.00,28.7,27.1,00.0,37.1,30.3,12.2,0000.0,0013.36,0004.69,0003.25
2023-05-04 10:37:00,,0824.9,4.99,0.00,28.7,27.1,00.0,37.1,30.3,12.2,0000.0,0013.58,0004.71,0003.25
2023-05-04 10:38:00,,0824.9,5.00,0.00,28.7,27.1,00.0,37.1,30.3,12.2,0000.0,0013.46,0004.76,0003.25
2023-05-04 10:39:00,,0824.9,5.01,0.00,28.7,27.1,00.0,37.1,30.3,12.2,0000.0,0012.92,0004.73,0003.26
2023-05-04 10:40:00,,0824.9,5.01,0.00,28.7,27.2,00.0,37.1,30.3,12.3,0000.0,0012.93,0004.72,0003.25
2023-05-04 10:41:00,,0824.9,4.98,0.00,28.7,27.2,00.0,37.1,30.3,12.3,0000.0,0013.93,0004.72,0003.25
2023-05-04 10:42:00,,0824.9,5.01,0.00,28.7,27.2,00.0,37.1,30.3,12.4,0000.0,0014.63,0004.71,0003.26
2023-05-04 10:43:00,,0824.9,5.02,0.00,28.7,27.2,00.0,37.1,30.3,12.4,0000.0,0014.76,0004.68,0003.26
2023-05-04 10:44:00,,0824.8,4.98,0.00,28.7,27.2,00.0,37.1,30.3,12.4,0000.0,0014.91,0004.68,0003.26
2023-05-04 10:45:00,,0824.9,5.00,0.00,28.7,27.1,00.0,37.1,30.3,12.4,0000.0,0014.40,0004.71,0003.25
2023-05-04 10:46:00,,0824.9,5.00,0.00,28.7,27.1,00.0,37.1,30.3,12.4,0000.0,0014.39,0004.70,0003.25
2023-05-04 10:47:00,,0824.9,5.01,0.00,28.7,27.1,00.0,37.1,30.3,12.3,0000.0,0013.52,0004.70,0003.25
2023-05-04 10:48:00,,0824.9,5.00,0.00,28.7,27.1,00.0,37.1,30.3,12.5,0000.0,0013.09,0004.68,0003.24
2023-05-04 10:49:00,,0824.9,5.00,0.00,28.7,27.1,00.0,37.1,30.2,12.6,0000.0,0013.45,0004.64,0003.23
2023-05-04 10:50:00,,0824.9,5.00,0.00,28.7,27.0,00.0,37.1,30.3,12.5,0000.0,0013.38,0004.63,0003.23
2023-05-04 10:51:00,,0824.9,5.01,0.00,28.7,27.0,00.0,37.1,30.3,12.4,0000.0,0013.30,0004.66,0003.24
2023-05-04 10:52:00,,0824.9,5.00,0.00,28.7,27.0,00.0,37.1,30.2,12.4,0000.0,0012.31,0004.65,0003.23
2023-05-04 10:53:00,,0824.9,4.98,0.00,28.7,27.0,00.0,37.1,30.2,12.4,0000.0,0011.63,0004.67,0003.22
2023-05-04 10:54:00,,0824.9,5.00,0.00,28.7,27.0,00.0,37.1,30.3,12.5,0000.0,0011.70,0004.72,0003.21
2023-05-04 10:55:00,,0824.9,5.00,0.00,28.7,27.1,00.0,37.1,30.3,12.5,0000.0,0012.26,0004.74,0003.21
2023-05-04 10:56:00,,0824.9,5.00,0.00,28.7,27.1,00.0,37.1,30.2,12.5,0000.0,0012.99,0004.75,0003.23
2023-05-04 10:57:00,,0824.9,5.00,0.00,28.7,27.1,00.0,37.1,30.3,12.5,0000.0,0013.42,0004.76,0003.24
2023-05-04 10:58:00,,0824.9,5.00,0.00,28.7,27.1,00.0,37.1,30.3,12.5,0000.0,0013.63,0004.79,0003.25
2023-05-04 10:59:00,,0824.9,5.01,0.00,28.7,27.1,00.0,37.1,30.3,12.5,0000.0,0013.75,0004.82,0003.26
